Temperature
24 23 23 22 21 21 20 20 20 19 19 19 19 19 19 19 18 19 18 18 18 18 18 18 18 18 18 18 18 18 18 18 18 18 18 19 19 19 18 18 18 18 18
24 23 23 22 21 20 20 20 19 19 19 19 19 19 19 19 18 18 18 18 18 18 18 18 18 18 18 18 18 18 18 18 18 18 18 18 19 19 19 18 18 18 18
25 24 23 22 21 21 20 20 19 19 19 19 19 19 19 19 18 18 18 18 18 18 18 18 18 18 17 17 18 18 18 18 18 18 18 18 18 18 18 18 18 18 18
26 24 23 22 22 21 20 20 19 19 19 19 19 19 19 19 18 18 18 18 18 18 18 18 18 17 17 17 17 17 17 17 17 18 18 18 18 18 18 18 18 18 18
26 25 24 23 22 22 21 20 20 19 19 19 19 19 18 18 18 18 18 18 18 18 17 17 17 17 17 17 17 17 17 17 17 17 17 18 18 18 18 18 18 18 18
26 25 24 23 23 22 21 20 20 20 19 19 19 19 18 18 18 18 18 18 18 17 17 17 17 17 17 17 17 17 17 17 17 17 17 17 17 17 17 17 18 18 18
26 25 24 23 23 22 21 21 20 20 19 19 19 19 18 18 18 18 18 18 18 17 17 17 17 17 17 17 16 16 16 16 16 17 17 17 17 17 17 17 17 17 18
26 25 25 24 23 22 21 21 20 20 20 19 19 19 18 18 18 18 18 17 17 17 17 17 17 17 17 16 16 16 16 16 16 16 16 16 16 16 17 17 17 17 17
26 25 24 24 23 22 21 21 20 20 19 19 19 18 18 18 18 17 17 17 17 17 17 17 17 17 16 16 16 16 16 16 16 16 16 16 16 16 16 16 16 16 16
26 25 24 24 23 22 22 21 20 20 19 19 18 18 18 18 17 17 17 17 17 17 16 16 16 16 16 16 16 16 15 15 15 15 15 15 15 15 15 16 16 16 16
26 25 24 23 23 22 22 21 20 20 19 19 18 18 18 17 17 17 17 17 17 16 16 16 16 16 16 16 15 15 15 15 15 15 15 15 15 15 15 15 15 15 15
26 25 24 23 23 22 21 21 20 20 19 19 18 18 18 17 17 17 17 16 16 16 16 16 16 15 16 15 15 15 15 15 14 15 15 15 15 15 15 15 14 15 15
25 24 24 23 22 22 21 20 20 19 19 18 18 18 17 17 17 16 16 16 16 16 16 15 15 15 15 15 15 14 14 14 14 14 14 14 14 14 14 14 14 14 14
25 24 23 22 21 21 20 20 19 19 18 18 18 17 17 17 17 16 16 16 16 16 15 15 15 15 15 15 14 14 14 14 14 14 14 14 14 14 14 14 14 14 14
24 23 23 22 21 20 20 19 19 18 18 18 18 17 17 16 16 16 16 16 16 15 15 15 15 15 15 14 14 14 14 14 14 14 14 14 14 14 14 14 14 14 14
24 23 22 21 20 20 19 19 18 18 18 18 17 17 17 16 16 16 16 15 15 15 15 15 15 14 14 14 14 14 14 14 14 14 14 14 14 14 13 13 13 13 13
23 22 22 21 20 19 19 18 18 18 18 17 17 16 16 16 15 15 15 15 15 15 15 14 14 14 14 14 14 14 14 14 13 13 13 13 13 13 13 13 13 13 13
23 22 21 20 20 19 19 18 18 18 17 17 16 16 16 15 15 15 15 15 14 14 14 14 14 14 14 14 14 14 14 13 13 13 13 13 13 13 13 13 13 13 13
22 21 21 20 20 19 18 18 17 17 17 17 16 16 15 15 15 15 14 14 14 14 14 14 14 14 14 14 14 13 13 13 13 13 13 13 13 13 13 13 12 12 12
21 21 20 20 19 19 18 17 17 17 16 16 16 15 15 15 15 14 14 14 14 14 13 13 13 14 14 14 13 13 13 13 13 13 13 13 13 13 12 12 12 12 12
21 20 20 19 19 18 17 17 17 16 16 16 15 15 15 15 14 14 14 14 13 13 13 13 13 13 13 13 13 13 13 12 12 12 12 12 12 12 12 12 12 12 12
20 20 19 19 18 18 17 17 16 16 15 15 15 15 15 14 14 14 14 14 13 13 13 13 13 13 13 13 13 13 13 12 12 12 12 12 12 12 12 12 12 12 12
19 19 19 18 18 17 16 16 16 15 15 15 15 15 14 14 14 14 14 14 13 13 13 13 12 12 13 13 12 12 12 12 12 12 12 12 12 12 12 12 12 12 12
19 18 18 17 17 16 16 16 15 15 15 15 14 14 14 14 14 14 14 14 13 13 13 13 12 12 12 12 12 12 12 12 12 12 11 12 11 11 11 12 12 12 12
18 18 17 17 16 16 16 15 15 15 14 14 14 14 14 14 14 14 14 14 14 13 13 13 12 12 12 12 12 12 12 12 12 12 12 12 11 11 11 11 11 11 11
18 17 17 16 16 16 15 15 14 14 14 14 14 14 14 14 14 14 14 13 13 13 13 13 12 12 12 12 12 12 11 11 11 11 11 11 11 11 11 11 11 11 11
Wind_Speed
9 8 8 8 8 8 7 6 4 4 2 1 1 1 1 1 2 2 2 2 2 2 2 2 1 1 2 2 2 1 1 1 1 1 1 2 3 3 3 2 2 2 2
10 9 8 8 8 8 7 6 4 4 2 1 0 1 1 1 2 2 2 2 2 2 1 1 2 2 1 1 2 2 2 2 1 1 1 1 1 1 3 3 3 3 2
11 10 8 7 8 8 7 6 5 4 3 2 1 1 1 1 2 2 2 2 2 2 3 3 3 3 1 1 1 2 2 2 1 1 1 1 1 1 1 2 2 2 2
11 11 10 8 8 8 8 6 5 4 3 2 1 1 2 2 1 1 2 2 1 1 1 2 2 3 3 2 2 2 2 2 2 2 1 1 0 1 1 1 1 3 2
11 11 11 9 9 9 8 7 6 5 4 3 2 0 1 1 1 2 2 2 1 1 2 2 2 2 2 3 3 3 3 2 2 2 2 2 1 2 1 2 1 1 2
10 10 11 10 8 8 8 8 7 5 4 3 2 1 1 1 1 1 1 1 2 2 2 2 1 1 2 2 2 2 2 3 3 3 3 2 1 2 1 2 2 2 2
10 9 10 9 8 8 8 8 8 6 4 3 2 2 1 1 1 0 0 0 1 2 2 2 1 1 1 1 1 1 2 2 3 2 3 3 2 2 2 1 2 2 1
9 9 9 9 8 8 7 8 7 6 5 4 2 2 1 1 1 0 0 1 1 1 2 1 1 1 1 1 1 1 1 1 2 3 3 3 3 3 3 2 2 2 2
9 9 8 8 8 8 7 7 7 5 5 4 4 3 2 1 1 0 1 1 1 1 2 1 1 1 1 1 1 1 1 1 2 2 3 3 3 3 3 3 2 2 3
9 9 8 7 7 7 7 7 7 6 5 4 3 3 3 2 2 1 2 2 2 3 2 2 1 1 1 1 1 1 1 2 2 2 2 3 3 4 3 3 3 2 2
9 9 8 7 6 6 7 6 6 6 5 5 3 3 3 3 2 2 2 2 2 2 2 2 2 1 1 1 1 1 2 2 2 3 2 3 3 3 4 3 3 3 2
8 8 8 7 7 6 6 6 6 6 6 5 4 3 3 3 2 2 1 1 1 1 1 1 1 1 2 2 2 3 3 2 3 3 3 3 3 3 3 3 4 3 3
8 7 7 7 6 6 5 4 4 5 5 5 4 3 2 2 2 1 1 1 1 1 0 0 0 1 1 2 2 2 3 3 3 3 3 3 3 3 3 4 4 3 4
8 7 7 7 7 6 5 4 3 4 5 4 4 3 2 1 1 1 1 1 1 0 1 1 1 1 2 2 2 3 3 3 3 3 3 3 2 3 4 4 3 3 3
7 7 7 6 6 5 4 5 4 3 4 3 3 3 2 2 1 1 1 1 0 1 1 1 1 2 2 2 2 3 4 3 3 3 4 3 3 3 2 3 2 3 2
6 6 7 6 5 4 4 4 3 4 4 3 3 2 2 2 2 1 1 1 2 2 1 1 1 2 3 3 3 2 4 3 3 3 4 4 2 2 3 3 4 3 3
6 6 6 6 5 4 4 3 4 4 4 3 2 2 2 2 1 1 2 2 2 2 2 2 2 1 2 3 3 3 3 3 3 3 3 5 4 3 2 2 4 4 5
5 5 4 5 5 4 4 2 3 4 3 3 2 2 2 1 1 1 1 1 1 1 1 2 2 2 3 3 3 3 3 3 3 2 2 2 3 5 4 4 3 3 4
4 4 3 4 4 4 4 3 2 3 2 2 2 1 1 1 0 1 1 1 1 1 1 1 1 2 3 3 3 3 2 2 2 2 2 2 2 4 4 3 4 4 5
4 4 3 4 4 3 3 2 2 2 2 1 1 1 1 1 0 0 0 1 1 1 2 1 1 1 2 3 3 3 3 2 2 2 2 3 3 4 4 3 4 5 6
3 3 3 4 4 3 3 2 1 1 2 2 1 1 1 1 1 1 1 1 1 1 1 1 1 0 1 2 3 3 2 3 3 2 2 2 3 3 4 5 5 7 7
3 2 2 3 3 3 2 1 1 1 2 2 2 1 2 2 1 1 2 2 1 2 1 1 1 1 0 1 2 3 3 4 3 3 3 3 3 4 6 6 7 9 8
3 1 2 3 2 2 2 2 1 2 2 2 2 2 2 1 1 2 2 2 2 2 1 1 1 1 1 2 3 3 4 5 3 4 5 6 7 8 6 7 8 7 5
2 1 1 2 2 2 2 2 2 2 2 2 2 2 2 2 2 2 2 1 1 1 1 2 2 1 1 2 3 3 3 4 4 4 6 7 7 8 7 6 5 4 4
2 1 0 1 2 2 2 2 2 2 2 2 2 3 3 2 2 1 1 1 0 1 1 1 2 2 2 2 3 4 4 4 4 5 4 4 4 4 3 4 3 3 3
1 1 0 0 1 2 2 2 2 2 3 3 3 2 2 2 2 1 1 3 1 3 2 0 1 1 0 2 3 5 6 7 6 4 4 4 3 4 4 4 4 3 3
Wind_Direction
132 130 131 126 123 118 116 113 112 104 98 97 130 145 134 129 115 111 89 66 23 6 354 2 7 22 38 3 353 329 290 262 278 284 239 201 196 192 175 169 165 163 171
138 136 131 131 130 123 122 123 122 125 133 128 125 139 125 132 101 78 94 77 45 0 9 26 356 22 53 3 347 332 321 302 277 266 271 222 200 238 179 162 175 181 185
146 142 141 141 137 134 137 140 137 133 137 132 137 114 116 82 85 102 96 82 60 34 14 19 2 358 4 23 335 341 312 309 296 281 300 294 268 262 176 191 170 170 165
146 147 148 152 150 144 142 133 135 137 136 134 103 100 124 117 100 104 102 107 86 63 43 27 9 3 8 28 355 18 330 323 306 311 307 270 354 310 295 257 183 185 177
148 150 152 155 153 150 147 141 135 134 137 143 138 167 84 109 117 108 115 131 133 98 47 49 25 13 13 26 12 25 1 344 335 323 317 318 308 293 259 283 269 229 194
147 149 149 150 150 150 146 143 139 140 145 156 151 143 105 81 71 81 107 139 108 83 63 64 27 19 4 20 24 10 1 349 345 335 336 331 317 302 281 264 277 258 211
146 144 144 146 149 151 147 144 142 147 152 159 158 143 122 121 82 353 113 12 84 94 75 42 32 4 11 13 12 14 1 345 334 335 325 319 318 306 300 274 278 288 256
144 143 148 150 154 152 146 139 142 150 153 151 149 134 138 160 112 320 1 13 358 80 104 110 77 41 9 357 8 352 354 347 326 329 333 319 321 325 325 298 289 296 289
147 142 141 150 150 149 145 140 140 145 152 154 151 144 135 110 69 44 50 23 13 37 54 60 55 36 12 350 346 331 331 349 326 325 326 309 306 308 314 314 310 296 294
152 142 142 144 147 150 144 137 141 151 150 147 160 151 151 151 116 74 59 48 39 32 29 20 33 29 15 342 308 322 316 309 305 293 315 315 309 309 304 308 313 305 283
148 144 144 146 138 138 136 139 136 137 138 133 134 134 139 140 130 107 73 57 43 36 26 5 4 20 4 354 347 316 311 300 304 301 305 300 299 312 317 316 313 307 307
142 139 140 138 137 126 124 128 138 142 136 133 131 126 125 121 117 107 94 75 59 61 51 15 358 355 4 4 346 322 329 321 311 305 310 304 302 304 297 301 295 290 286
125 124 122 117 107 100 99 106 129 127 123 126 128 123 118 122 128 120 94 78 48 52 44 80 34 336 337 332 324 316 318 316 312 316 309 296 302 298 292 284 285 287 290
120 121 117 111 106 104 99 93 92 107 116 117 119 116 119 115 110 106 119 93 45 13 3 352 336 320 322 321 333 329 308 304 310 315 305 295 288 285 289 291 282 284 294
129 124 117 114 118 113 110 111 107 96 100 114 117 110 105 87 75 60 51 47 325 328 348 316 316 307 300 326 348 321 307 317 317 314 308 302 298 306 292 297 308 302 296
130 123 118 118 119 121 116 106 98 91 97 100 96 92 85 76 65 51 41 26 17 3 345 331 327 320 323 6 13 339 319 318 315 317 316 308 303 298 270 273 284 289 272
127 120 126 131 129 128 121 113 111 108 107 101 84 82 80 77 63 26 32 28 24 12 348 342 345 350 342 354 347 328 308 307 307 307 309 312 327 347 327 291 275 270 261
128 129 141 142 142 134 134 123 125 125 127 129 120 95 90 82 76 70 31 1 356 321 320 336 344 341 341 348 323 319 297 292 289 288 296 311 326 326 329 304 292 273 271
119 131 148 147 141 147 148 146 155 145 142 140 135 120 111 101 93 73 8 346 332 320 310 328 337 351 352 352 344 332 299 294 305 322 349 342 344 345 333 316 301 295 291
105 115 133 134 134 144 141 146 154 152 141 137 131 135 166 153 178 159 254 294 294 295 295 335 345 12 2 357 3 340 299 306 317 331 3 6 9 348 328 302 297 295 293
91 111 133 133 131 129 125 143 171 161 143 139 139 163 198 211 210 191 202 270 280 281 298 305 297 319 335 353 359 346 322 308 309 317 330 355 7 343 313 300 288 281 288
94 94 114 108 115 121 122 138 145 128 139 156 157 186 197 226 223 201 230 234 253 263 260 264 269 285 326 3 334 325 313 316 328 329 331 349 345 321 306 298 290 295 298
100 116 122 121 125 131 134 164 153 158 170 176 183 197 198 195 210 223 232 233 234 253 269 307 333 336 7 19 352 335 329 326 320 317 320 314 302 296 289 278 287 294 289
72 72 109 146 139 137 135 158 159 167 182 192 208 210 202 200 205 226 229 241 260 295 338 342 327 346 31 19 5 345 335 332 322 317 310 298 288 287 286 288 288 280 285
55 73 167 160 129 122 136 158 155 177 187 198 211 223 206 202 204 207 262 224 229 198 230 317 328 349 356 337 328 320 320 324 332 320 297 291 289 298 302 301 297 294 298
64 70 77 85 137 142 157 166 180 179 185 198 212 232 220 199 215 174 74 40 92 128 127 138 322 18 5 310 326 333 325 315 315 310 295 303 309 317 320 318 316 318 322
Height
1498 1500 1502 1503 1504 1504 1505 1506 1507 1508 1509 1510 1510 1511 1511 1512 1512 1511 1511 1511 1511 1511 1511 1511 1511 1511 1511 1511 1511 1511 1512 1512 1513 1513 1513 1514 1514 1514 1514 1515 1515 1516 1516
1496 1499 1501 1503 1504 1504 1505 1506 1507 1508 1509 1509 1510 1511 1511 1512 1512 1511 1511 1511 1511 1511 1511 1510 1510 1511 1510 1510 1510 1511 1511 1511 1512 1512 1512 1513 1514 1513 1514 1513 1514 1514 1515
1494 1497 1500 1502 1503 1504 1505 1506 1507 1508 1508 1509 1510 1511 1511 1511 1512 1511 1511 1510 1510 1510 1510 1509 1510 1510 1510 1509 1510 1510 1510 1510 1511 1511 1512 1512 1512 1512 1512 1512 1513 1513 1513
1491 1495 1498 1501 1502 1504 1505 1506 1507 1508 1508 1509 1510 1511 1511 1511 1511 1511 1511 1510 1510 1509 1509 1509 1509 1509 1509 1508 1508 1508 1509 1509 1509 1510 1510 1511 1511 1511 1511 1512 1511 1512 1512
1489 1493 1496 1499 1501 1503 1505 1506 1507 1507 1508 1509 1509 1510 1511 1511 1511 1511 1511 1510 1509 1508 1508 1508 1508 1508 1507 1507 1507 1507 1507 1507 1508 1508 1509 1509 1510 1510 1510 1510 1510 1510 1510
1488 1491 1495 1498 1500 1503 1504 1505 1506 1507 1508 1508 1509 1509 1510 1510 1510 1510 1510 1510 1509 1508 1508 1507 1507 1506 1506 1506 1506 1506 1506 1506 1506 1507 1507 1508 1508 1508 1509 1508 1508 1509 1509
1487 1490 1494 1496 1499 1502 1503 1505 1505 1506 1507 1507 1508 1508 1509 1509 1509 1509 1509 1509 1508 1508 1507 1507 1506 1505 1505 1505 1505 1505 1505 1505 1505 1505 1506 1506 1507 1507 1507 1507 1507 1507 1507
1486 1489 1492 1495 1498 1501 1503 1504 1504 1505 1506 1506 1507 1507 1508 1508 1508 1509 1509 1508 1508 1507 1506 1506 1505 1505 1504 1504 1504 1504 1504 1503 1503 1504 1504 1504 1504 1505 1505 1505 1505 1505 1505
1485 1488 1492 1495 1497 1499 1501 1503 1503 1504 1505 1506 1506 1506 1507 1507 1507 1508 1508 1507 1507 1507 1505 1505 1504 1504 1503 1503 1503 1502 1502 1502 1502 1502 1501 1501 1502 1502 1502 1503 1503 1504 1503
1484 1487 1491 1494 1496 1498 1500 1501 1503 1503 1504 1505 1505 1506 1506 1506 1506 1506 1506 1506 1506 1505 1505 1504 1503 1503 1502 1502 1501 1501 1501 1501 1500 1500 1500 1499 1499 1499 1500 1500 1500 1501 1501
1482 1486 1489 1493 1495 1498 1499 1501 1502 1502 1503 1504 1504 1504 1505 1505 1505 1505 1505 1505 1504 1504 1503 1503 1502 1501 1501 1500 1500 1499 1499 1499 1499 1498 1498 1497 1497 1497 1497 1497 1498 1498 1498
1481 1485 1488 1491 1494 1496 1498 1500 1501 1501 1502 1502 1503 1504 1504 1504 1504 1504 1503 1503 1503 1503 1502 1502 1501 1500 1499 1499 1498 1498 1498 1497 1497 1496 1496 1495 1495 1494 1494 1494 1495 1495 1495
1482 1485 1488 1490 1493 1495 1497 1499 1501 1501 1501 1502 1502 1502 1503 1503 1503 1503 1502 1502 1501 1501 1501 1500 1499 1498 1498 1497 1497 1496 1496 1496 1495 1495 1494 1493 1493 1492 1492 1491 1491 1492 1492
1482 1485 1488 1491 1493 1495 1496 1498 1500 1501 1501 1501 1501 1501 1501 1501 1501 1501 1501 1500 1500 1499 1499 1498 1497 1497 1496 1495 1495 1495 1494 1494 1493 1492 1492 1491 1490 1489 1489 1488 1488 1488 1488
1482 1485 1488 1490 1493 1494 1496 1497 1499 1500 1500 1501 1500 1500 1500 1500 1500 1500 1499 1499 1498 1498 1497 1496 1496 1495 1494 1494 1493 1492 1492 1491 1491 1490 1490 1489 1488 1487 1486 1486 1485 1484 1485
1482 1485 1488 1490 1492 1494 1496 1497 1498 1498 1499 1500 1499 1499 1499 1499 1499 1498 1498 1498 1497 1496 1495 1495 1494 1493 1493 1492 1491 1490 1490 1489 1488 1488 1487 1486 1485 1485 1484 1484 1483 1483 1482
1482 1485 1488 1489 1491 1493 1494 1495 1496 1497 1498 1498 1499 1499 1498 1498 1498 1498 1497 1496 1495 1495 1494 1493 1492 1491 1490 1490 1489 1488 1488 1487 1486 1485 1484 1484 1483 1483 1482 1481 1481 1480 1480
1482 1485 1487 1489 1491 1492 1493 1494 1495 1495 1496 1497 1497 1497 1497 1497 1496 1496 1495 1495 1494 1494 1493 1492 1490 1489 1488 1488 1487 1486 1485 1485 1484 1483 1482 1481 1480 1480 1479 1478 1477 1477 1476
1482 1484 1486 1488 1490 1491 1492 1493 1493 1493 1494 1495 1495 1495 1495 1495 1495 1494 1494 1493 1492 1492 1491 1490 1489 1488 1486 1486 1485 1484 1483 1483 1482 1481 1480 1479 1478 1477 1476 1475 1474 1473 1473
1482 1483 1485 1487 1488 1489 1490 1491 1491 1491 1492 1492 1493 1493 1493 1493 1493 1493 1492 1492 1491 1490 1490 1489 1488 1486 1485 1484 1483 1482 1482 1481 1480 1480 1478 1477 1476 1475 1474 1473 1471 1470 1469
1482 1483 1484 1485 1486 1487 1488 1489 1490 1490 1490 1491 1491 1491 1492 1492 1492 1492 1491 1490 1490 1489 1488 1487 1486 1485 1484 1483 1482 1481 1480 1479 1479 1478 1477 1476 1475 1473 1472 1470 1469 1468 1467
1480 1482 1483 1484 1485 1486 1486 1487 1488 1488 1488 1489 1489 1489 1490 1490 1490 1490 1489 1489 1488 1488 1487 1486 1485 1484 1483 1482 1481 1480 1479 1478 1477 1476 1475 1474 1473 1471 1470 1468 1467 1466 1465
1480 1481 1482 1483 1484 1484 1484 1485 1485 1486 1486 1486 1486 1487 1487 1488 1488 1488 1488 1487 1487 1486 1486 1485 1484 1483 1482 1481 1480 1479 1477 1476 1475 1474 1473 1472 1471 1469 1468 1466 1465 1464 1463
1479 1481 1482 1482 1482 1482 1482 1483 1483 1483 1483 1484 1484 1485 1485 1485 1486 1486 1486 1486 1486 1485 1485 1484 1483 1482 1481 1479 1478 1477 1476 1474 1473 1472 1471 1470 1469 1467 1466 1464 1463 1461 1460
1478 1479 1480 1481 1481 1480 1480 1481 1481 1481 1481 1481 1482 1483 1484 1484 1484 1484 1485 1484 1484 1484 1483 1483 1482 1481 1479 1478 1478 1476 1474 1473 1472 1470 1469 1468 1466 1465 1464 1462 1461 1459 1458
1478 1478 1479 1479 1479 1479 1479 1479 1479 1479 1479 1479 1480 1481 1482 1482 1482 1482 1483 1483 1483 1482 1482 1481 1481 1479 1479 1477 1476 1475 1473 1472 1470 1469 1467 1466 1465 1464 1462 1460 1459 1457 1456